Location: Aiyede
(8.4833°N, 4.4500°E)
Time: 18:53:17
(UTC+00:00)

N. Korean satellite - Pass Details

Date: 30 November 2020
Orbit: 453 x 502 km, 97.2° (Epoch: 15 January)

Event Time Altitude Azimuth Distance (km) Brightness Sun altitude
Rises 04:44:19 0° 15° (NNE) 2,568 10.2 -13.9°
Reaches altitude 10° 04:46:24 10° 18° (NNE) 1,692 9.3 -13.4°
Maximum altitude 04:50:01 67° 100° (E) 544 7.0 -12.6°
Drops below altitude 10° 04:53:40 10° 184° (S) 1,704 9.5 -11.7°
Sets 04:55:46 0° 186° (S) 2,589 10.4 -11.2°
